GW1279 Weather Reports


time (UTC)temp
F
wind
direction
speed
knots
gust
knots
rain 1hr
in
rain 24hr
in
rain mn
in
humidity
%
barometer
mb
20260506044559 53 0 0.0 7.8 0.00 0.00 0.00 83 1007.9
20260506043031 53 199 0.9 4.3 0.00 0.00 0.00 82 1008.0
20260506041528 54 0 0.0 0.9 0.00 0.00 0.00 82 1007.8
20260506040029 54 0 0.0 0.9 0.00 0.00 0.00 81 1007.6
20260506034558 54 0 0.0 0.0 0.00 0.00 0.00 81 1007.7
20260506033027 55 0 0.0 4.3 0.00 0.00 0.00 80 1007.9
20260506031531 55 0 0.0 3.5 0.00 0.00 0.00 80 1007.7
20260506030028 55 0 0.0 0.0 0.00 0.00 0.00 80 1007.6
20260506024528 55 0 0.0 0.0 0.00 0.00 0.00 80 1008.0
20260506023028 55 0 0.0 0.0 0.00 0.00 0.00 79 1008.0
20260506021530 55 0 0.0 0.0 0.00 0.00 0.00 78 1007.9
20260506020030 56 0 0.0 2.6 0.00 0.00 0.00 78 1008.2
20260506014530 56 0 0.0 5.2 0.00 0.00 0.00 78 1008.1
20260506013027 56 0 0.0 0.0 0.00 0.00 0.00 78 1007.8
20260506011528 57 0 0.0 0.0 0.00 0.00 0.00 77 1007.5
20260506010029 57 0 0.0 0.0 0.00 0.00 0.00 76 1006.8
20260506004539 58 0 0.0 0.0 0.00 0.00 0.00 75 1006.7
20260506003038 59 0 0.0 0.9 0.00 0.00 0.00 72 1007.2
20260506001530 59 0 0.0 4.3 0.00 0.00 0.00 72 1007.1
20260506000031 58 0 0.0 0.0 0.00 0.00 0.00 73 1006.8
20260505234548 57 228 0.9 6.1 0.00 0.00 0.00 74 1007.3
20260505233027 57 300 4.3 13.0 0.00 0.00 0.00 73 1007.6
20260505231532 58 205 2.6 8.7 0.00 0.00 0.00 71 1004.9
20260505230038 59 196 1.7 8.7 0.00 0.00 0.00 70 1004.7
20260505224528 59 200 2.6 8.7 0.00 0.00 0.00 69 1004.7
20260505223031 61 0 2.6 11.3 0.00 0.00 0.00 66 1004.4
20260505221527 62 194 0.9 7.8 0.00 0.00 0.00 64 1004.2
20260505220043 64 205 0.9 12.2 0.00 0.00 0.00 61 1004.2
20260505214535 67 174 2.6 14.8 0.00 0.00 0.00 57 1004.1
20260505213027 69 0 0.0 7.0 0.00 0.00 0.00 56 1004.2
20260505211530 68 0 2.6 7.8 0.00 0.00 0.00 55 1004.2
20260505210030 69 228 0.9 9.6 0.00 0.00 0.00 55 1004.0
20260505204529 69 0 1.7 10.4 0.00 0.00 0.00 56 1004.0
20260505203030 69 196 1.7 10.4 0.00 0.00 0.00 57 1004.3
20260505201531 71 190 1.7 11.3 0.00 0.00 0.00 54 1004.3
20260505200030 71 117 1.7 13.9 0.00 0.00 0.00 54 1004.4
20260505194535 72 0 0.9 10.4 0.00 0.00 0.00 54 1004.4
20260505193038 71 0 0.0 13.0 0.00 0.00 0.00 55 1004.8
20260505191537 70 0 0.9 7.8 0.00 0.00 0.00 56 1005.0
20260505190032 70 199 1.7 9.6 0.00 0.00 0.00 56 1005.0
20260505184529 70 0 2.6 13.0 0.00 0.01 0.00 55 1004.9
20260505183030 71 243 2.6 9.6 0.00 0.01 0.00 54 1005.2
20260505181531 71 0 2.6 11.3 0.00 0.01 0.00 53 1005.1
20260505180042 73 0 0.0 10.4 0.00 0.01 0.00 52 1005.3
20260505174602 73 0 1.7 15.6 0.00 0.01 0.00 51 1005.6
20260505173027 72 0 0.0 7.0 0.00 0.01 0.00 55 1005.9
20260505171532 70 190 2.6 10.4 0.00 0.01 0.00 53 1005.8
20260505170032 69 210 2.6 13.0 0.00 0.01 0.00 55 1006.1
20260505164530 68 0 0.0 7.8 0.00 0.01 0.00 57 1006.4
20260505163030 66 0 0.0 8.7 0.00 0.01 0.00 61 1006.6
20260505161530 66 184 0.0 10.4 0.00 0.01 0.00 59 1007.0
20260505153031 68 0 1.7 7.0 0.00 0.01 0.00 56 1006.9
20260505151531 67 178 0.0 4.3 0.00 0.01 0.00 60 1006.9
20260505124530 60 0 2.6 7.0 0.00 0.01 0.00 63 1007.5
20260505123050 58 0 0.0 7.0 0.00 0.01 0.00 66 1007.6
20260505121528 57 214 1.7 9.6 0.00 0.01 0.00 67 1007.8
20260505120030 56 200 1.7 10.4 0.00 0.01 0.00 69 1008.0
20260505114527 55 0 1.7 9.6 0.00 0.01 0.00 71 1008.0
20260505113035 54 215 0.9 5.2 0.00 0.01 0.00 73 1007.9
20260505111549 53 0 0.0 7.8 0.00 0.01 0.00 75 1007.9
20260505101533 50 0 0.0 4.3 0.00 0.01 0.00 78 1007.8
20260505100034 49 205 0.0 4.3 0.00 0.01 0.00 78 1007.8
20260505094530 49 0 0.0 7.0 0.00 0.01 0.00 79 1007.7
20260505093031 49 0 0.0 7.0 0.00 0.01 0.00 79 1007.7
20260505091534 49 0 0.9 8.7 0.00 0.01 0.00 78 1007.7
20260505090033 49 0 0.0 5.2 0.00 0.01 0.00 78 1007.7
20260505084531 49 0 0.0 4.3 0.00 0.01 0.00 78 1007.6
20260505083040 49 207 0.0 5.2 0.00 0.01 0.00 78 1007.7
20260505081533 49 0 0.0 4.3 0.00 0.01 0.00 77 1007.7
20260505080036 50 0 0.0 4.3 0.00 0.01 0.00 77 1007.7
20260505074527 50 0 0.0 3.5 0.00 0.01 0.00 76 1007.7
20260505073027 50 0 0.0 4.3 0.00 0.01 0.00 76 1007.7
20260505071535 50 0 0.0 3.5 0.00 0.01 0.00 75 1007.7
20260505070033 51 0 0.0 3.5 0.00 0.01 0.00 74 1007.7
20260505064542 51 0 0.0 0.9 0.00 0.01 0.00 73 1007.6
20260505063031 51 0 0.0 5.2 0.00 0.01 0.00 73 1007.7
20260505061538 51 0 0.0 5.2 0.00 0.01 0.00 73 1007.5
20260505060031 51 0 0.0 5.2 0.00 0.01 0.00 74 1007.6
20260505054530 51 0 0.0 5.2 0.00 0.01 0.00 74 1007.6
20260505053030 50 207 0.9 4.3 0.00 0.01 0.00 76 1007.5
20260505051527 50 202 0.0 7.0 0.00 0.01 0.00 77 1007.4